Weather History for CWSS - February, 2012

Change the Weather History Date:

Sunday, February 19, 2012

  Actual Average Record
Temperature  
Mean Temperature 30 °F -  
Max Temperature 37 °F - - ()
Min Temperature 22 °F - - ()
Degree Days  
Heating Degree Days 36    
Moisture  
Dew Point 14 °F    
Average Humidity 52    
Maximum Humidity 75    
Minimum Humidity 20    
Precipitation  
Precipitation 0.00 in - - ()
Sea Level Pressure  
Sea Level Pressure 29.87 in    
Wind  
Wind Speed 6 mph ()    
Max Wind Speed 13 mph    
Max Gust Speed 22 mph    
T = Trace of Precipitation, MM = Missing Value Source: Averaged Metar Reports

Daily Weather History Graph

Daily Weather History Graph

Search for Another Location

Airport or City:

Trip Planner

Search our weather history database for the weather conditions in past years. The results will help you decide how hot, cold, wet, or windy it might be!

Date:

Astronomy

Feb. 19, 2012 Rise Set
Actual Time 7:24 AM AST 6:01 PM AST
Civil Twilight 6:54 AM AST 6:31 PM AST
Nautical Twilight 6:20 AM AST 7:06 PM AST
Astronomical Twilight 5:46 AM AST 7:40 PM AST
Moon 5:48 AM AST (2/19) 3:55 PM AST (2/19)
Length of Visible Light 11h 36m
Length of Day
10h 36m
Waning Crescent, 6% of the Moon is Illuminated
Feb 19
Waning Crescent
Feb 21
New
Feb 29
First Quarter
Mar 8
Full
Mar 14
Last Quarter

Hourly Weather History & Observations

Time (AST) Temp. Windchill Dew Point Humidity Pressure Visibility Wind Dir Wind Speed Gust Speed Precip Events Conditions
12:00 AM 30.6 °F 23.1 °F 21.7 °F 70% 29.79 in - WSW 8.1 mph - N/A   Unknown
1:00 AM 29.1 °F 23.0 °F 20.7 °F 71% 29.80 in - WSW 5.8 mph - N/A   Unknown
2:00 AM 28 °F - 19 °F 59% 29.80 in - West 4.6 mph - -  
2:00 AM 28.2 °F 23.1 °F 19.2 °F 69% 29.80 in - West 4.6 mph - N/A   Unknown
3:00 AM 28.2 °F 21.0 °F 18.7 °F 67% 29.82 in - West 6.9 mph - N/A   Unknown
4:00 AM 28.2 °F 20.2 °F 18.3 °F 66% 29.83 in - West 8.1 mph - N/A   Unknown
5:00 AM 27 °F - 18 °F 57% 29.84 in - West 6.9 mph - -  
5:00 AM 26.6 °F 19.1 °F 17.8 °F 69% 29.84 in - West 6.9 mph - N/A   Unknown
6:00 AM 25.3 °F 18.5 °F 17.2 °F 71% 29.85 in - West 5.8 mph - N/A   Unknown
7:00 AM 23.7 °F 19.3 °F 16.9 °F 75% 29.87 in - West 3.5 mph - N/A   Unknown
8:00 AM 24 °F - 16 °F 62% 29.90 in - WNW 4.6 mph - -  
8:00 AM 23.5 °F 17.6 °F 16.3 °F 74% 29.90 in - WNW 4.6 mph - N/A   Unknown
9:00 AM 25.5 °F 16.9 °F 14.9 °F 64% 29.91 in - West 8.1 mph - N/A   Unknown
10:00 AM 27.5 °F 17.4 °F 13.1 °F 55% 29.90 in - WNW 11.5 mph 20.7 mph N/A   Unknown
11:00 AM 30 °F - 13 °F 34% 29.88 in - WNW 10.4 mph - -  
11:00 AM 29.8 °F 20.9 °F 12.7 °F 49% 29.88 in - WNW 10.4 mph 19.6 mph N/A   Unknown
12:00 PM 31.6 °F 23.7 °F 12.6 °F 45% 29.88 in - WNW 9.2 mph 21.9 mph N/A   Unknown
1:00 PM 33.4 °F 24.3 °F 11.3 °F 40% 29.87 in - NW 12.7 mph 20.7 mph N/A   Unknown
2:00 PM 35 °F - 11 °F 23% 29.86 in - WNW 10.4 mph - -  
2:00 PM 35.2 °F 27.6 °F 10.9 °F 37% 29.86 in - WNW 10.4 mph 18.4 mph N/A   Unknown
3:00 PM 36.0 °F 28.0 °F 9.3 °F 33% 29.86 in - WNW 11.5 mph 21.9 mph N/A   Unknown
4:00 PM 36.5 °F 29.2 °F 10.4 °F 34% 29.87 in - WNW 10.4 mph 21.9 mph N/A   Unknown
5:00 PM 35 °F - 9 °F 20% 29.87 in - NW 9.2 mph - -  
5:00 PM 35.2 °F 28.1 °F 9.1 °F 34% 29.87 in - NW 9.2 mph 18.4 mph N/A   Unknown
6:00 PM 31.6 °F 23.7 °F 9.1 °F 39% 29.89 in - NW 9.2 mph - N/A   Unknown
7:00 PM 29.7 °F - 10.6 °F 45% 29.90 in - West 2.3 mph - N/A   Unknown
8:00 PM 28 °F - 11 °F 34% 29.91 in - West 3.5 mph - -  
8:00 PM 28.4 °F 24.6 °F 10.9 °F 48% 29.91 in - West 3.5 mph - N/A   Unknown
9:00 PM 27.0 °F - 11.1 °F 51% 29.93 in - West 2.3 mph - N/A   Unknown
10:00 PM 25.5 °F 21.3 °F 11.5 °F 55% 29.94 in - West 3.5 mph - N/A   Unknown
11:00 PM 24 °F - 11 °F 44% 29.95 in - WNW 5.8 mph - -  
11:00 PM 24.4 °F 17.5 °F 10.9 °F 57% 29.95 in - WNW 5.8 mph - N/A   Unknown